TimeCST,TemperatureF,Dew PointF,Humidity,Sea Level PressureIn,VisibilityMPH,Wind Direction,Wind SpeedMPH,Gust SpeedMPH,PrecipitationIn,Events,Conditions,WindDirDegrees,DateUTC
12:15 AM,69.8,64.4,83,30.06,5.0,SSW,6.9,-,N/A,,Overcast,200,2013-02-11 06:15:00
12:35 AM,68.0,64.4,88,30.06,5.0,SSW,5.8,-,N/A,,Overcast,200,2013-02-11 06:35:00
12:55 AM,69.8,66.2,88,30.05,5.0,SSW,9.2,-,N/A,,Overcast,200,2013-02-11 06:55:00
1:15 AM,69.8,66.2,88,30.05,5.0,SSW,6.9,-,N/A,,Overcast,210,2013-02-11 07:15:00
1:35 AM,69.8,66.2,88,30.05,4.0,SSW,5.8,-,N/A,,Overcast,200,2013-02-11 07:35:00
1:55 AM,68.0,64.4,88,30.04,3.0,SSW,5.8,-,N/A,,Overcast,200,2013-02-11 07:55:00
2:15 AM,68.0,64.4,88,30.03,3.0,South,4.6,-,N/A,,Overcast,190,2013-02-11 08:15:00
2:35 AM,68.0,64.4,88,30.02,2.5,South,4.6,-,N/A,,Overcast,190,2013-02-11 08:35:00
2:55 AM,68.0,64.4,88,30.03,2.5,WSW,8.1,-,0.01,,Overcast,240,2013-02-11 08:55:00
3:15 AM,68.0,64.4,88,30.04,1.5,WSW,8.1,-,N/A,Rain,Light Rain,240,2013-02-11 09:15:00
3:35 AM,68.0,64.4,88,30.04,2.0,SW,4.6,-,N/A,,Overcast,220,2013-02-11 09:35:00
3:55 AM,68.0,64.4,88,30.03,1.8,South,5.8,-,0.01,Rain,Light Rain,190,2013-02-11 09:55:00
4:15 AM,68.0,64.4,88,30.04,1.5,SSW,6.9,-,N/A,Rain,Heavy Rain,200,2013-02-11 10:15:00
4:35 AM,68.0,64.4,88,30.04,5.0,SSW,4.6,-,N/A,Rain,Light Rain,210,2013-02-11 10:35:00
4:55 AM,68.0,64.4,88,30.04,0.8,SSW,4.6,-,N/A,,Overcast,200,2013-02-11 10:55:00
5:15 AM,68.0,64.4,88,30.03,0.8,South,5.8,-,N/A,,Overcast,180,2013-02-11 11:15:00
5:55 AM,68.0,64.4,88,30.05,2.0,South,4.6,-,N/A,,Overcast,170,2013-02-11 11:55:00
6:15 AM,68.0,64.4,88,30.05,0.8,South,4.6,-,N/A,,Overcast,170,2013-02-11 12:15:00
6:35 AM,68.0,64.4,88,30.06,1.5,South,5.8,-,N/A,,Overcast,180,2013-02-11 12:35:00
6:55 AM,68.0,64.4,88,30.07,0.8,South,6.9,-,N/A,,Overcast,180,2013-02-11 12:55:00
7:15 AM,68.0,64.4,88,30.07,0.2,South,6.9,-,N/A,Fog,Fog,170,2013-02-11 13:15:00
7:35 AM,68.0,64.4,88,30.08,1.0,South,5.8,-,N/A,,Overcast,180,2013-02-11 13:35:00
7:55 AM,68.0,64.4,88,30.09,0.5,South,3.5,-,N/A,Fog,Fog,190,2013-02-11 13:55:00
8:15 AM,68.0,66.2,94,30.09,1.2,Calm,Calm,-,0.01,,Overcast,0,2013-02-11 14:15:00
8:35 AM,69.8,68.0,94,30.09,3.0,SSE,5.8,-,0.01,,Overcast,160,2013-02-11 14:35:00
8:55 AM,69.8,68.0,94,30.10,4.0,SSE,5.8,-,0.01,,Mostly Cloudy,160,2013-02-11 14:55:00
9:15 AM,69.8,66.2,88,30.10,4.0,SSE,4.6,-,N/A,,Mostly Cloudy,160,2013-02-11 15:15:00
9:35 AM,69.8,68.0,94,30.10,5.0,South,6.9,-,N/A,,Mostly Cloudy,170,2013-02-11 15:35:00
9:55 AM,71.6,69.8,94,30.10,5.0,South,5.8,-,N/A,,Mostly Cloudy,170,2013-02-11 15:55:00
10:15 AM,71.6,68.0,88,30.10,7.0,SSE,4.6,-,N/A,,Mostly Cloudy,150,2013-02-11 16:15:00
10:35 AM,73.4,68.0,83,30.10,7.0,SSE,6.9,-,N/A,,Scattered Clouds,160,2013-02-11 16:35:00
10:55 AM,73.4,68.0,83,30.09,7.0,South,6.9,-,N/A,,Scattered Clouds,170,2013-02-11 16:55:00
11:15 AM,73.4,64.4,73,30.10,7.0,NNW,9.2,-,N/A,,Overcast,330,2013-02-11 17:15:00
11:35 AM,66.2,60.8,83,30.09,10.0,North,8.1,17.3,N/A,Rain,Light Rain,360,2013-02-11 17:35:00
11:55 AM,64.4,60.8,88,30.08,7.0,North,6.9,-,N/A,Rain,Rain,360,2013-02-11 17:55:00
12:15 PM,64.4,60.8,88,30.09,7.0,North,-9999.0,-,N/A,Rain,Rain,0,2013-02-11 18:15:00
12:35 PM,64.4,60.8,88,30.07,7.0,North,5.8,-,N/A,Rain,Light Rain,10,2013-02-11 18:35:00
12:55 PM,64.4,60.8,88,30.08,10.0,NNW,10.4,16.1,N/A,Rain,Rain,340,2013-02-11 18:55:00
1:15 PM,62.6,59.0,88,30.08,7.0,North,10.4,16.1,N/A,Rain,Light Rain,360,2013-02-11 19:15:00
1:35 PM,62.6,59.0,88,30.07,10.0,North,13.8,18.4,N/A,Thunderstorm,Thunderstorm,10,2013-02-11 19:35:00
1:55 PM,62.6,59.0,88,30.07,10.0,North,11.5,16.1,N/A,,Overcast,10,2013-02-11 19:55:00
2:15 PM,62.6,59.0,88,30.07,10.0,North,9.2,-,N/A,,Overcast,350,2013-02-11 20:15:00
2:35 PM,62.6,59.0,88,30.07,10.0,North,10.4,20.7,N/A,,Overcast,10,2013-02-11 20:35:00
2:55 PM,62.6,57.2,82,30.07,10.0,NNE,8.1,18.4,N/A,,Overcast,20,2013-02-11 20:55:00
3:15 PM,62.6,57.2,82,30.05,10.0,NNE,11.5,18.4,N/A,Rain,Light Rain,30,2013-02-11 21:15:00
3:35 PM,60.8,55.4,82,30.05,10.0,NNE,13.8,23.0,N/A,Rain,Light Rain,30,2013-02-11 21:35:00
3:55 PM,62.6,55.4,77,30.06,10.0,NNE,10.4,17.3,N/A,,Overcast,30,2013-02-11 21:55:00
4:55 PM,60.8,53.6,77,30.05,10.0,NNE,8.1,-,N/A,,Overcast,30,2013-02-11 22:55:00
5:15 PM,60.8,53.6,77,30.06,10.0,NNE,12.7,20.7,N/A,,Overcast,30,2013-02-11 23:15:00
5:35 PM,60.8,53.6,77,30.06,10.0,NE,10.4,-,N/A,,Overcast,40,2013-02-11 23:35:00
5:55 PM,60.8,53.6,77,30.06,10.0,NE,12.7,-,N/A,,Overcast,50,2013-02-11 23:55:00
6:15 PM,59.0,53.6,82,30.07,5.0,NE,8.1,-,N/A,Rain,Light Rain,50,2013-02-12 00:15:00
6:35 PM,59.0,55.4,88,30.07,10.0,NE,10.4,-,N/A,,Overcast,50,2013-02-12 00:35:00
6:55 PM,59.0,55.4,88,30.07,10.0,NE,9.2,-,N/A,,Overcast,40,2013-02-12 00:55:00
7:15 PM,59.0,55.4,88,30.07,10.0,NNE,8.1,-,N/A,,Overcast,30,2013-02-12 01:15:00
7:35 PM,59.0,55.4,88,30.08,10.0,NE,6.9,-,N/A,,Overcast,40,2013-02-12 01:35:00
7:55 PM,59.0,55.4,88,30.07,10.0,NE,10.4,-,N/A,,Overcast,50,2013-02-12 01:55:00
8:15 PM,60.8,53.6,77,30.07,10.0,NE,9.2,16.1,N/A,,Overcast,50,2013-02-12 02:15:00
8:35 PM,59.0,53.6,82,30.07,10.0,NE,9.2,16.1,N/A,,Overcast,40,2013-02-12 02:35:00
8:55 PM,59.0,53.6,82,30.07,10.0,NE,6.9,-,N/A,,Overcast,40,2013-02-12 02:55:00
9:15 PM,59.0,53.6,82,30.07,10.0,NE,5.8,-,N/A,,Overcast,40,2013-02-12 03:15:00
9:35 PM,60.8,53.6,77,30.07,10.0,NE,6.9,-,N/A,,Overcast,50,2013-02-12 03:35:00
9:55 PM,60.8,53.6,77,30.06,10.0,NE,6.9,-,N/A,,Overcast,40,2013-02-12 03:55:00
10:15 PM,60.8,53.6,77,30.06,10.0,ENE,8.1,-,N/A,,Mostly Cloudy,70,2013-02-12 04:15:00
10:35 PM,60.8,53.6,77,30.06,10.0,ENE,8.1,-,N/A,,Mostly Cloudy,70,2013-02-12 04:35:00
10:55 PM,60.8,53.6,77,30.05,10.0,NE,6.9,-,0.01,,Overcast,50,2013-02-12 04:55:00
11:15 PM,60.8,53.6,77,30.06,10.0,NE,6.9,-,N/A,,Overcast,40,2013-02-12 05:15:00
11:35 PM,60.8,53.6,77,30.05,10.0,Calm,Calm,-,N/A,,Overcast,0,2013-02-12 05:35:00
11:55 PM,60.8,53.6,77,30.05,10.0,Calm,Calm,-,N/A,,Overcast,0,2013-02-12 05:55:00